Location: Bagnara
(41.0500°N, 14.7833°E)
Time: 10:27:43
(UTC+00:00)

Meteor 2-3 Rocket - Pass Details

Date: 20 June 2021
Orbit: 842 x 885 km, 81.2° (Epoch: 02 August)

Event Time Altitude Azimuth Distance (km) Brightness Sun altitude
Exits shadow 01:31:25 26° 201° (SSW) 1,599 4.6 -16.8°
Maximum altitude 01:34:38 72° 281° (W) 888 3.7 -16.5°
Drops below altitude 10° 01:40:14 10° 6° (N) 2,471 7.0 -15.9°
Sets 01:42:40 0° 8° (N) 3,409 7.9 -15.6°
